Hourly Weather Rudka

Today, 16 April, Friday

Time Temperature Precipitation Wind Pressure Humidity
00:00 +3°C° 0 mm 6 mps 748 mmHg 93%
01:00 +4°C° 0 mm 6 mps 748 mmHg 93%
02:00 +4°C° 0 mm 6 mps 748 mmHg 93%
03:00 +4°C° 0 mm 6 mps 747 mmHg 93%
04:00 +5°C° 0 mm 5 mps 747 mmHg 93%
05:00 +5°C° 0 mm 5 mps 747 mmHg 93%
06:00 +4°C° 0.7 mm 6 mps 747 mmHg 92%
07:00 +4°C° 0.7 mm 6 mps 747 mmHg 92%
08:00 +4°C° 0.7 mm 7 mps 747 mmHg 91%
09:00 +4°C° 0.2 mm 6 mps 748 mmHg 91%
10:00 +5°C° 0.2 mm 6 mps 748 mmHg 90%
11:00 +7°C° 0.2 mm 6 mps 748 mmHg 89%
12:00 +8°C° 0 mm 6 mps 748 mmHg 86%
13:00 +9°C° 0 mm 6 mps 748 mmHg 83%
14:00 +10°C° 0 mm 6 mps 748 mmHg 81%
15:00 +9°C° 0 mm 6 mps 748 mmHg 82%
16:00 +9°C° 0 mm 6 mps 749 mmHg 83%
17:00 +9°C° 0 mm 6 mps 749 mmHg 85%
18:00 +8°C° 0 mm 6 mps 749 mmHg 87%
19:00 +8°C° 0 mm 5 mps 749 mmHg 88%
20:00 +8°C° 0 mm 5 mps 749 mmHg 90%
21:00 +8°C° 0.5 mm 5 mps 749 mmHg 92%
22:00 +8°C° 0.5 mm 5 mps 749 mmHg 93%
23:00 +8°C° 0.5 mm 5 mps 749 mmHg 95%

Tomorrow, 17 April, Saturday

Time Temperature Precipitation Wind Pressure Humidity
00:00 +8°C° 0.1 mm 5 mps 749 mmHg 94%
01:00 +7°C° 0.1 mm 5 mps 749 mmHg 94%
02:00 +7°C° 0.1 mm 4 mps 749 mmHg 94%
03:00 +7°C° 0 mm 4 mps 749 mmHg 94%
04:00 +6°C° 0 mm 4 mps 750 mmHg 95%
05:00 +7°C° 0 mm 3 mps 750 mmHg 96%
06:00 +8°C° 0.1 mm 3 mps 750 mmHg 94%
07:00 +7°C° 0.1 mm 4 mps 750 mmHg 93%
08:00 +8°C° 0.1 mm 4 mps 751 mmHg 91%
09:00 +10°C° 0.1 mm 4 mps 751 mmHg 88%
10:00 +10°C° 0.1 mm 4 mps 751 mmHg 84%
11:00 +11°C° 0.1 mm 4 mps 751 mmHg 81%
12:00 +12°C° 0.2 mm 4 mps 751 mmHg 75%
13:00 +12°C° 0.2 mm 4 mps 751 mmHg 69%
14:00 +13°C° 0.2 mm 4 mps 752 mmHg 62%
15:00 +13°C° 0.1 mm 5 mps 752 mmHg 65%
16:00 +13°C° 0.1 mm 5 mps 752 mmHg 68%
17:00 +12°C° 0.1 mm 5 mps 752 mmHg 71%
18:00 +10°C° 0.1 mm 5 mps 752 mmHg 75%
19:00 +10°C° 0.1 mm 4 mps 752 mmHg 80%
20:00 +8°C° 0.1 mm 4 mps 752 mmHg 84%
21:00 +8°C° 0.1 mm 4 mps 752 mmHg 85%
22:00 +8°C° 0.1 mm 4 mps 752 mmHg 86%
23:00 +8°C° 0.1 mm 4 mps 752 mmHg 87%

Day after tomorrow, 18 April, Sunday

Time Temperature Precipitation Wind Pressure Humidity
00:00 +7°C° 0 mm 4 mps 751 mmHg 89%
01:00 +7°C° 0 mm 4 mps 751 mmHg 91%
02:00 +7°C° 0 mm 4 mps 751 mmHg 92%
03:00 +6°C° 0 mm 4 mps 751 mmHg 92%
04:00 +5°C° 0 mm 3 mps 751 mmHg 93%
05:00 +5°C° 0 mm 3 mps 751 mmHg 93%
06:00 +6°C° 0 mm 4 mps 752 mmHg 87%
07:00 +6°C° 0 mm 4 mps 752 mmHg 82%
08:00 +7°C° 0 mm 5 mps 752 mmHg 76%
09:00 +8°C° 0 mm 5 mps 752 mmHg 71%
10:00 +9°C° 0 mm 5 mps 752 mmHg 67%
11:00 +12°C° 0 mm 5 mps 752 mmHg 62%
12:00 +12°C° 0 mm 5 mps 752 mmHg 63%
13:00 +12°C° 0 mm 5 mps 752 mmHg 63%
14:00 +12°C° 0 mm 5 mps 752 mmHg 64%
15:00 +12°C° 0 mm 5 mps 752 mmHg 65%
16:00 +10°C° 0 mm 5 mps 752 mmHg 65%
17:00 +11°C° 0 mm 4 mps 752 mmHg 66%
18:00 +10°C° 0 mm 4 mps 753 mmHg 70%
19:00 +9°C° 0 mm 3 mps 753 mmHg 74%
20:00 +8°C° 0 mm 2 mps 753 mmHg 78%
21:00 +8°C° 0 mm 2 mps 753 mmHg 80%
22:00 +7°C° 0 mm 2 mps 753 mmHg 82%
23:00 +7°C° 0 mm 2 mps 753 mmHg 85%

19 April, Monday

Time Temperature Precipitation Wind Pressure Humidity
00:00 +6°C° 0 mm 2 mps 753 mmHg 86%
01:00 +6°C° 0 mm 2 mps 753 mmHg 88%
02:00 +4°C° 0 mm 3 mps 753 mmHg 89%
03:00 +4°C° 0 mm 3 mps 753 mmHg 90%
04:00 +3°C° 0 mm 3 mps 753 mmHg 91%
05:00 +3°C° 0 mm 3 mps 753 mmHg 91%
06:00 +4°C° 0 mm 3 mps 753 mmHg 86%
07:00 +5°C° 0 mm 4 mps 753 mmHg 81%
08:00 +6°C° 0 mm 5 mps 753 mmHg 76%
09:00 +6°C° 0 mm 5 mps 753 mmHg 74%
10:00 +7°C° 0 mm 5 mps 753 mmHg 72%
11:00 +7°C° 0 mm 5 mps 752 mmHg 70%
12:00 +7°C° 0 mm 5 mps 752 mmHg 69%
13:00 +7°C° 0 mm 4 mps 752 mmHg 69%
14:00 +8°C° 0 mm 4 mps 752 mmHg 68%
15:00 +8°C° 0 mm 4 mps 752 mmHg 69%
16:00 +8°C° 0 mm 4 mps 751 mmHg 70%
17:00 +8°C° 0 mm 4 mps 751 mmHg 71%
18:00 +7°C° 0.1 mm 4 mps 751 mmHg 74%
19:00 +7°C° 0.1 mm 4 mps 751 mmHg 78%
20:00 +6°C° 0.1 mm 4 mps 750 mmHg 81%
21:00 +5°C° 0 mm 4 mps 750 mmHg 85%
22:00 +5°C° 0 mm 4 mps 750 mmHg 89%
23:00 +4°C° 0 mm 4 mps 749 mmHg 93%

20 April, Tuesday

Time Temperature Precipitation Wind Pressure Humidity
00:00 +4°C° 0 mm 4 mps 749 mmHg 91%
01:00 +4°C° 0 mm 4 mps 749 mmHg 90%
02:00 +5°C° 0 mm 4 mps 748 mmHg 89%
03:00 +5°C° 0 mm 4 mps 748 mmHg 90%
04:00 +5°C° 0 mm 4 mps 747 mmHg 90%
05:00 +3°C° 0 mm 5 mps 747 mmHg 91%
06:00 +5°C° 0.1 mm 5 mps 746 mmHg 92%
07:00 +5°C° 0.1 mm 5 mps 746 mmHg 92%
08:00 +5°C° 0.1 mm 5 mps 746 mmHg 92%
09:00 +5°C° 0.6 mm 5 mps 745 mmHg 92%
10:00 +5°C° 0.6 mm 5 mps 745 mmHg 91%
11:00 +5°C° 0.6 mm 5 mps 745 mmHg 91%
12:00 +5°C° 0.5 mm 5 mps 744 mmHg 89%
13:00 +6°C° 0.5 mm 5 mps 744 mmHg 87%
14:00 +6°C° 0.5 mm 5 mps 743 mmHg 85%
15:00 +7°C° 0 mm 5 mps 743 mmHg 82%
16:00 +7°C° 0 mm 5 mps 742 mmHg 79%
17:00 +7°C° 0 mm 6 mps 741 mmHg 76%
18:00 +7°C° 0 mm 6 mps 741 mmHg 77%
19:00 +5°C° 0 mm 6 mps 741 mmHg 78%
20:00 +5°C° 0 mm 6 mps 740 mmHg 79%
21:00 +4°C° 0.2 mm 6 mps 739 mmHg 81%
22:00 +4°C° 0.2 mm 6 mps 739 mmHg 83%
23:00 +4°C° 0.2 mm 6 mps 738 mmHg 85%

21 April, Wednesday

Time Temperature Precipitation Wind Pressure Humidity
00:00 +3°C° 0.9 mm 6 mps 738 mmHg 88%
01:00 +3°C° 0.9 mm 6 mps 737 mmHg 92%
02:00 +2°C° 0.9 mm 6 mps 737 mmHg 95%
03:00 +2°C° 0.7 mm 6 mps 737 mmHg 95%
04:00 +2°C° 0.7 mm 5 mps 737 mmHg 96%
05:00 +1°C° 0.7 mm 5 mps 737 mmHg 96%
06:00 +1°C° 0.2 mm 5 mps 737 mmHg 96%
07:00 +1°C° 0.2 mm 5 mps 737 mmHg 96%
08:00 +1°C° 0.2 mm 5 mps 737 mmHg 96%
09:00 +2°C° 0.1 mm 5 mps 737 mmHg 96%
10:00 +2°C° 0.1 mm 5 mps 737 mmHg 96%
11:00 +2°C° 0.1 mm 5 mps 737 mmHg 95%
12:00 +2°C° 0.1 mm 5 mps 737 mmHg 95%
13:00 +2°C° 0.1 mm 5 mps 738 mmHg 95%
14:00 +3°C° 0.1 mm 5 mps 738 mmHg 94%
15:00 +4°C° 0.1 mm 4 mps 738 mmHg 91%
16:00 +5°C° 0.1 mm 4 mps 739 mmHg 87%
17:00 +5°C° 0.1 mm 4 mps 739 mmHg 84%
18:00 +5°C° 0 mm 3 mps 739 mmHg 84%
19:00 +4°C° 0 mm 3 mps 740 mmHg 85%
20:00 +5°C° 0 mm 2 mps 740 mmHg 85%
21:00 +3°C° 0 mm 3 mps 741 mmHg 85%
22:00 +3°C° 0 mm 3 mps 741 mmHg 85%
23:00 +3°C° 0 mm 3 mps 742 mmHg 85%
Show more